Location: ????? ??????
(37.8317°N, 23.8750°E)
Time: 13:37:25
(UTC+00:00)

NOSS 3-1 (C) - Pass Details

Date: 20 January 2021
Orbit: 723 x 1485 km, 63.3° (Epoch: 03 March)

Event Time Altitude Azimuth Distance (km) Brightness Sun altitude
Rises 17:36:35 0° 331° (NNW) 3,965 7.0 -23.8°
Reaches altitude 10° 17:39:16 10° 338° (NNW) 3,110 6.3 -24.4°
Maximum altitude 17:46:36 47° 51° (NE) 1,695 4.3 -25.8°
Enters shadow 17:47:16 46° 64° (ENE) 1,726 4.3 -25.9°
